Regional Weather Roundup
Issued by NWS

Home | Current Version | Previous Version | Text Only | Print | Product List | Glossary Off
Versions: 1 2 3 4 5 6 7 8 9 10 11 12 13 14 15 16 17 18 19 20 21 22 23 24 25 26 27 28 29 30 31 32 33 34 35 36 37 38 39 40 41 42 43 44 45 46 47 48 49 50

000
ASUS43 KTOP 011259
RWRKS

WEATHER ROUNDUP FOR KANSAS
NATIONAL WEATHER SERVICE GOODLAND KS
800 AM CDT WED OCT 01 2014

NOTE:  "FAIR" INDICATES FEW OR NO CLOUDS BELOW 12,000 FEET WITH NO
SIGNIFICANT WEATHER AND/OR OBSTRUCTIONS TO VISIBILITY.

KSZ001>006-013>018-027>032-041>047-011400-
NORTHWEST KANSAS

CITY           SKY/WX    TMP DP  RH WIND       PRES   REMARKS
GOODLAND       CLEAR     46  43  89 W7        29.86R
HAYS           CLOUDY    57  54  88 N3        29.76R VSB<1/4
HILL CITY      CLOUDY    60  59  96 N6        29.78R FOG
RUSSELL        FOG       60  59  96 NE6       29.74R VSB<1/4
$$

KSZ061>065-074>080-084>089-011400-
SOUTHWEST KANSAS

CITY           SKY/WX    TMP DP  RH WIND       PRES   REMARKS
DODGE CITY     CLEAR     54  44  69 N6        29.75R
GARDEN CITY    CLEAR     51  45  79 N7        29.78R
GREAT BEND     CLEAR     54  48  82 CALM      29.75R
LIBERAL        CLEAR     54  45  71 NW13      29.77R
$$

KSZ066>073-081>083-090>101-011400-
SOUTHEAST KANSAS

CITY           SKY/WX    TMP DP  RH WIND       PRES   REMARKS
CHANUTE        CLOUDY    71  63  75 S12       29.78R
COFFEYVILLE    CLOUDY    71  63  75 S9        29.78R
HUTCHINSON     CLEAR     66  63  90 SE5       29.74R FOG
MEDICINE LODGE   N/A     65  63  93 E6        29.72R
NEWTON         CLOUDY    66  61  82 SE8       29.77R
PARSONS        CLOUDY    71  63  75 S6        29.80R
WICHITA INTL   PTCLDY    69  64  84 SE7       29.74R
WICHITA JABRA  PTCLDY    67  64  90 S8        29.75R
WINFIELD       CLOUDY    68  61  78 S7        29.75S
$$

KSZ007>012-019>026-033>040-048>060-102>105-011400-
NORTHEAST KANSAS

CITY           SKY/WX    TMP DP  RH WIND       PRES   REMARKS
CONCORDIA      CLEAR     61  61 100 SW7       29.73R FOG
EMPORIA        PTCLDY    67  64  90 S9        29.75R
LAWRENCE       MOCLDY    65  62  90 E9        29.76R FOG
MANHATTAN      CLEAR     67  65  93 SW8       29.72R
OLATHE IND     PTCLDY    66  61  84 SW6       29.79R
OLATHE EXE     PTCLDY    67  61  81 CALM      29.78R
SALINA         CLEAR     63  61  93 S3        29.74R FOG
TOPEKA BILLARD MOCLDY    67  65  93 E5        29.75R
TOPEKA FORBES  MOCLDY    67  64  90 S10       29.75R
$$



USA.gov is the U.S. government's official web portal to all federal, state and local government web resources and services.